Starlink 6327

operational
NORAD ID: 56522 Int'l Des: 2023-065 Owner: SPXS Country: US Constellation: starlink
LEOCIRCULAR

Starlink 6327について

説明を読み込み中...

リアルタイム位置

3D地球を読み込み中...

次回通過

高度履歴

Altitude vs Time

uPlot chart will show altitude changes over time

軌道要素

1 56522U 23065V 25259.76745108 .00000826 00000-0 76208-4 0 9990
2 56522 43.0026 75.2697 0001138 270.6828 89.3884 15.02535008130462
Epoch: Sep 16, 2025 • Age: 29 hours

現在のステータス

高度 561.3 km
速度 7.59 km/s
衛星直下点 35.19°N, 152.49°W
打ち上げ日 May 14, 2023
運用期間 2.3 years
タイプ internet

技術仕様

分類 Payload
質量 305.00 kg
乾燥質量 290.00 kg
総質量 305.00 kg
長さ 0.20 m
直径 2.80 m
スパン 9.00 m
形状 Box + pan
製造者 SPXS
バスタイプ Starlink
フェーズステータス In Orbit
所有者/国 SPXS/US

大規模コンステレーション

Loading constellations...